| time (UTC) | temp F | wind direction | speed knots | gust knots | rain 1hr in | rain 24hr in | rain mn in | humidity % | barometer mb |
| 20260503223940 | 89 | 231 | 6.1 | 13.0 | 0.00 | 0.00 | 0.00 | 16 | 1005.1 |
| 20260503222913 | 90 | 190 | 4.3 | 13.0 | 0.00 | 0.00 | 0.00 | 16 | 1005.3 |
| 20260503220733 | 90 | 233 | 5.2 | 16.5 | 0.00 | 0.00 | 0.00 | 16 | 1005.7 |
| 20260503215741 | 90 | 103 | 6.1 | 16.5 | 0.00 | 0.00 | 0.00 | 17 | 1006.0 |
| 20260503214733 | 90 | 203 | 4.3 | 12.2 | 0.00 | 0.00 | 0.00 | 16 | 1006.0 |
| 20260503213713 | 89 | 227 | 7.8 | 15.6 | 0.00 | 0.00 | 0.00 | 19 | 1006.1 |
| 20260503212642 | 89 | 196 | 6.1 | 15.6 | 0.00 | 0.00 | 0.00 | 18 | 1006.4 |
| 20260503211608 | 89 | 217 | 4.3 | 13.0 | 0.00 | 0.00 | 0.00 | 19 | 1006.4 |
| 20260503210627 | 89 | 197 | 5.2 | 13.0 | 0.00 | 0.00 | 0.00 | 19 | 1006.7 |
| 20260503205556 | 90 | 212 | 5.2 | 14.8 | 0.00 | 0.00 | 0.00 | 19 | 1006.9 |
| 20260503204555 | 89 | 226 | 5.2 | 14.8 | 0.00 | 0.00 | 0.00 | 20 | 1007.0 |
| 20260503203612 | 89 | 206 | 5.2 | 13.0 | 0.00 | 0.00 | 0.00 | 18 | 1007.0 |
| 20260503202556 | 89 | 229 | 5.2 | 13.0 | 0.00 | 0.00 | 0.00 | 18 | 1007.1 |
| 20260503201605 | 89 | 152 | 5.2 | 12.2 | 0.00 | 0.00 | 0.00 | 17 | 1007.2 |
| 20260503200611 | 89 | 240 | 3.5 | 12.2 | 0.00 | 0.00 | 0.00 | 18 | 1007.4 |
| 20260503194439 | 89 | 219 | 4.3 | 11.3 | 0.00 | 0.00 | 0.00 | 18 | 1007.7 |
| 20260503193411 | 87 | 211 | 5.2 | 12.2 | 0.00 | 0.00 | 0.00 | 21 | 1007.9 |
| 20260503192408 | 88 | 219 | 5.2 | 12.2 | 0.00 | 0.00 | 0.00 | 20 | 1008.2 |
| 20260503190234 | 87 | 226 | 4.3 | 13.0 | 0.00 | 0.00 | 0.00 | 21 | 1008.4 |
| 20260503185203 | 86 | 166 | 3.5 | 9.6 | 0.00 | 0.00 | 0.00 | 22 | 1008.6 |
| 20260503184211 | 86 | 219 | 3.5 | 4.3 | 0.00 | 0.00 | 0.00 | 22 | 1008.8 |
| 20260503183327 | 86 | 142 | 4.3 | 15.6 | 0.00 | 0.00 | 0.00 | 21 | 1008.9 |
| 20260503182316 | 86 | 49 | 4.3 | 14.8 | 0.00 | 0.00 | 0.00 | 21 | 1009.0 |
| 20260503181334 | 86 | 229 | 2.6 | 13.9 | 0.00 | 0.00 | 0.00 | 21 | 1009.1 |
| 20260503180334 | 85 | 160 | 5.2 | 13.0 | 0.00 | 0.00 | 0.00 | 23 | 1009.4 |
| 20260503174156 | 83 | 176 | 4.3 | 10.4 | 0.00 | 0.00 | 0.00 | 25 | 1009.6 |
| 20260503173139 | 82 | 58 | 5.2 | 11.3 | 0.00 | 0.00 | 0.00 | 26 | 1009.6 |
| 20260503172135 | 82 | 69 | 2.6 | 11.3 | 0.00 | 0.00 | 0.00 | 26 | 1009.8 |
| 20260503171151 | 81 | 78 | 4.3 | 12.2 | 0.00 | 0.00 | 0.00 | 27 | 1009.7 |
| 20260503170215 | 81 | 56 | 4.3 | 13.9 | 0.00 | 0.00 | 0.00 | 27 | 1009.8 |
| 20260503131343 | 75 | 343 | 5.2 | 10.4 | 0.00 | 0.00 | 0.00 | 28 | 1009.3 |
| 20260503080449 | 73 | 334 | 4.3 | 7.8 | 0.00 | 0.00 | 0.00 | 23 | 1009.5 |
| 20260503071156 | 74 | 350 | 5.2 | 7.8 | 0.00 | 0.00 | 0.00 | 22 | 1009.4 |
| 20260503054926 | 75 | 333 | 4.3 | 7.8 | 0.00 | 0.00 | 0.00 | 21 | 1009.3 |
| 20260503053906 | 76 | 342 | 4.3 | 7.0 | 0.00 | 0.00 | 0.00 | 21 | 1009.1 |
| 20260503052834 | 76 | 334 | 3.5 | 7.8 | 0.00 | 0.00 | 0.00 | 21 | 1009.2 |
| 20260503051847 | 75 | 329 | 4.3 | 7.8 | 0.00 | 0.00 | 0.00 | 21 | 1009.3 |
| 20260503050852 | 75 | 321 | 3.5 | 6.1 | 0.00 | 0.00 | 0.00 | 22 | 1009.3 |
| 20260503045832 | 76 | 334 | 2.6 | 5.2 | 0.00 | 0.00 | 0.00 | 21 | 1009.2 |
| 20260503044842 | 77 | 328 | 2.6 | 6.1 | 0.00 | 0.00 | 0.00 | 21 | 1009.1 |
| 20260503043905 | 77 | 326 | 3.5 | 7.0 | 0.00 | 0.00 | 0.00 | 21 | 1009.0 |
| 20260503042917 | 76 | 328 | 3.5 | 7.0 | 0.00 | 0.00 | 0.00 | 21 | 1008.9 |
| 20260503041915 | 73 | 6 | 0.0 | 5.2 | 0.00 | 0.00 | 0.00 | 23 | 1008.9 |
| 20260503040918 | 72 | 58 | 0.0 | 0.0 | 0.00 | 0.00 | 0.00 | 23 | 1008.8 |
| 20260503035859 | 73 | 58 | 0.0 | 0.0 | 0.00 | 0.00 | 0.00 | 23 | 1008.7 |
| 20260503034911 | 74 | 58 | 0.0 | 0.0 | 0.00 | 0.00 | 0.00 | 22 | 1008.5 |
| 20260503033916 | 74 | 196 | 0.0 | 0.0 | 0.00 | 0.00 | 0.00 | 22 | 1008.5 |
| 20260503032909 | 75 | 197 | 0.0 | 0.0 | 0.00 | 0.00 | 0.00 | 22 | 1008.5 |
| 20260503031926 | 75 | 197 | 0.0 | 0.0 | 0.00 | 0.00 | 0.00 | 21 | 1008.4 |
| 20260503030942 | 76 | 197 | 0.0 | 0.0 | 0.00 | 0.00 | 0.00 | 21 | 1008.3 |
| 20260503025921 | 76 | 197 | 0.0 | 0.0 | 0.00 | 0.00 | 0.00 | 21 | 1008.3 |
| 20260503024846 | 78 | 196 | 0.0 | 0.0 | 0.00 | 0.00 | 0.00 | 20 | 1008.1 |
| 20260503023839 | 80 | 197 | 0.0 | 0.0 | 0.00 | 0.00 | 0.00 | 19 | 1008.0 |
| 20260503022821 | 81 | 197 | 0.0 | 0.0 | 0.00 | 0.00 | 0.00 | 18 | 1007.9 |
| 20260503021830 | 82 | 207 | 0.9 | 0.0 | 0.00 | 0.00 | 0.00 | 18 | 1007.9 |
| 20260503020822 | 82 | 195 | 0.9 | 4.3 | 0.00 | 0.00 | 0.00 | 18 | 1008.0 |
| 20260503015843 | 83 | 179 | 2.6 | 5.2 | 0.00 | 0.00 | 0.00 | 18 | 1007.8 |
| 20260503014901 | 83 | 233 | 2.6 | 7.0 | 0.00 | 0.00 | 0.00 | 18 | 1007.8 |
| 20260503013908 | 83 | 200 | 2.6 | 7.0 | 0.00 | 0.00 | 0.00 | 18 | 1007.8 |
| 20260503012908 | 84 | 179 | 1.7 | 5.2 | 0.00 | 0.00 | 0.00 | 18 | 1007.8 |
| 20260503011837 | 85 | 166 | 0.9 | 6.1 | 0.00 | 0.00 | 0.00 | 17 | 1007.8 |
| 20260503005710 | 85 | 231 | 4.3 | 10.4 | 0.00 | 0.00 | 0.00 | 17 | 1007.9 |
| 20260503004719 | 86 | 223 | 3.5 | 10.4 | 0.00 | 0.00 | 0.00 | 15 | 1007.9 |
| 20260503003652 | 86 | 224 | 1.7 | 9.6 | 0.00 | 0.00 | 0.00 | 16 | 1007.9 |
| 20260503001511 | 86 | 160 | 3.5 | 8.7 | 0.00 | 0.00 | 0.00 | 15 | 1007.8 |
| 20260503000521 | 87 | 255 | 2.6 | 10.4 | 0.00 | 0.00 | 0.00 | 15 | 1007.9 |
| 20260502235503 | 86 | 241 | 5.2 | 10.4 | 0.00 | 0.00 | 0.00 | 15 | 1007.8 |
| 20260502234439 | 88 | 241 | 3.5 | 9.6 | 0.00 | 0.00 | 0.00 | 14 | 1007.9 |
| 20260502232320 | 88 | 238 | 3.5 | 13.0 | 0.00 | 0.00 | 0.00 | 14 | 1007.9 |
| 20260502231254 | 87 | 117 | 3.5 | 13.0 | 0.00 | 0.00 | 0.00 | 14 | 1007.9 |
| 20260502230316 | 87 | 104 | 2.6 | 10.4 | 0.00 | 0.00 | 0.00 | 15 | 1007.9 |
| 20260502225336 | 88 | 134 | 1.7 | 14.8 | 0.00 | 0.00 | 0.00 | 15 | 1008.1 |